Location: Newark
(50.0306°N, 2.3272°E)
Time: 11:06:57
(UTC+00:00)

Vanguard 1 Rocket - Visible Passes

Search period start: 09 December 2019 00:00
Search period end: 19 December 2019 00:00
Orbit: 650 x 4226 km, 34.3° (Epoch: 08 December)

Date Brightness Start Highest point End Pass type
(mag) Time Alt. Az. Time Alt. Az. Time Alt. Az.
09 Dec 11.0 17:49:38 10° SSE 17:53:50 11° SE 17:57:37 10° SE visible
09 Dec 10.5 20:07:38 10° SSW 20:18:08 24° S 20:18:08 24° S visible
10 Dec 10.5 18:55:33 10° SSW 19:08:36 21° SSE 19:11:03 21° SE visible
10 Dec 10.7 21:21:45 10° SW 21:28:21 22° SSW 21:28:21 22° SSW visible
11 Dec 10.8 17:45:17 10° S 17:56:10 16° SE 18:03:58 11° ESE visible
11 Dec 10.4 20:08:10 10° SW 20:21:15 29° S 20:21:15 29° S visible
11 Dec 11.2 22:37:19 10° WSW 22:38:33 12° WSW 22:38:33 12° WSW visible
12 Dec 11.2 16:40:51 10° SE 16:43:40 10° SE 16:46:20 10° SE visible
12 Dec 10.4 18:55:16 10° SSW 19:11:00 27° SSE 19:14:09 25° SE visible
12 Dec 10.6 21:23:06 10° SW 21:31:27 26° SW 21:31:27 26° SW visible
13 Dec 10.7 17:43:41 10° S 17:58:26 22° SSE 18:07:02 14° ESE visible
13 Dec 10.2 20:09:02 10° SW 20:24:19 34° S 20:24:19 34° S visible
13 Dec 11.1 22:39:11 10° WSW 22:41:36 15° WSW 22:41:36 15° WSW visible
14 Dec 11.1 16:34:33 10° SSE 16:45:46 16° SE 16:55:02 10° ESE visible
14 Dec 10.3 18:55:32 10° SSW 19:13:23 32° SSE 19:17:11 29° SE visible
14 Dec 10.5 21:24:38 10° WSW 21:34:28 29° SW 21:34:28 29° SW visible
15 Dec 10.6 17:43:07 10° SSW 18:00:38 27° SSE 18:10:02 17° ESE visible
15 Dec 10.1 20:10:10 10° SW 20:27:19 39° S 20:27:19 39° S visible
15 Dec 11.0 22:41:08 10° WSW 22:44:36 16° WSW 22:44:36 16° WSW visible
16 Dec 11.0 16:32:25 10° S 16:47:47 21° SE 16:59:52 10° ESE visible
16 Dec 10.2 18:56:11 10° SW 19:15:42 37° SSE 19:20:09 32° SE visible
16 Dec 10.5 21:26:18 10° WSW 21:37:26 32° SW 21:37:26 32° SW visible
17 Dec 10.6 17:43:09 10° SSW 18:02:47 32° SSE 18:12:57 19° ESE visible
17 Dec 10.1 20:11:30 10° WSW 20:30:15 42° S 20:30:15 42° S visible
17 Dec 11.0 22:43:11 10° WSW 22:47:32 18° WSW 22:47:32 18° WSW visible
18 Dec 11.0 16:31:34 10° SSW 16:49:44 26° SE 17:03:45 10° E visible
18 Dec 10.1 18:57:09 10° SW 19:17:59 41° SSE 19:23:03 35° SE visible
18 Dec 10.4 21:28:04 10° WSW 21:40:20 34° SW 21:40:20 34° SW visible
